Regional Weather Roundup
Issued by NWS

Home | Current Version | Previous Version | Graphics & Text | Print | Product List | Glossary Off
Versions: 1 2 3 4 5 6 7 8 9 10 11 12 13 14 15 16 17 18 19 20 21 22 23 24 25 26 27 28 29 30 31 32 33 34 35 36 37 38 39 40 41 42 43 44 45 46 47 48 49 50

748
ASUS43 KMPX 030110
RWRMN
WEATHER ROUNDUP FOR MINNESOTA
NATIONAL WEATHER SERVICE TWIN CITIES/CHANHASSEN MN
700 PM CST FRI DEC 02 2016


NOTE: "FAIR" INDICATES FEW OR NO CLOUDS BELOW 12,000 FEET WITH NO
SIGNIFICANT WEATHER AND/OR OBSTRUCTIONS TO VISIBILITY. N/A MEANS
CURRENT SKY AND/OR WEATHER CONDITIONS ARE NOT AVAILABLE.

MNZ060>063-068>070-030200-
   Twin Cities Metro

CITY           SKY/WX    TMP DP  RH WIND       PRES   REMARKS
TWIN CITIES    CLOUDY    31  23  72 W9        30.29S WCI  23
ST PAUL        CLOUDY    32  25  75 SW10      30.30S WCI  24
CRYSTAL        CLOUDY    31  23  72 NW5       30.28S WCI  26
BLAINE         CLOUDY    32  37 100 N5        30.28S WCI  27
LAKEVILLE      CLOUDY    28  23  80 W6        30.29S WCI  22
EDEN PRAIRIE   CLOUDY    31  23  72 W5        30.28S WCI  26
SOUTH ST PAUL  CLOUDY    32  24  73 W7        30.29S WCI  25
LAKE ELMO      CLOUDY    32  28  86 N5        30.29S WCI  27
$$
MNZ001>005-007-008-013>017-022>024-027-028-030200-
   Northwest Minnesota

CITY           SKY/WX    TMP DP  RH WIND       PRES   REMARKS
BEMIDJI        CLOUDY    24  20  84 W7        30.25R WCI  16
HALLOCK        CLOUDY    28  27  93 CALM      30.26S
ROSEAU         CLOUDY    27  21  80 NW5       30.25S WCI  21
WARROAD        CLOUDY    25  21  86 CALM      30.25S
THIEF RVR FALL CLOUDY    27  23  85 CALM      30.27R
CROOKSTON      CLOUDY    30  21  69 W6        30.28S WCI  24
FOSSTON        CLOUDY    25  19  80 NW3       30.26S
DETROIT LAKES  CLOUDY    28  23  80 NW7       30.28R WCI  21
MOORHEAD       CLOUDY    28  19  69 SW5       30.30S WCI  23
PARK RAPIDS    CLOUDY    25  17  72 W3        30.25S
$$
MNZ006-009>011-018-025>026-030200-
   North Central Minnesota

CITY           SKY/WX    TMP DP  RH WIND       PRES   REMARKS
BAUDETTE       CLOUDY    24  20  84 W7        30.24R WCI  16
FLAG ISLAND    CLOUDY    21  19  93 NW7       30.25R WCI  13
INTL FALLS     CLOUDY    23  20  88 NW8       30.24R WCI  14
WASKISH        CLOUDY    27  21  80 NW6       30.25R WCI  20
BIG FORK       CLOUDY    25  21  86 W3        30.24S
LONGVILLE      CLOUDY    25  21  86 SW3       30.26R
GRAND RAPIDS   CLOUDY    25  21  85 W5        30.26R WCI  19
CRANE LAKE     CLOUDY    25  23  93 NW3       30.25R
ORR            CLOUDY    23  19  86 CALM      30.21R
COOK           CLOUDY    25  23  93 W5        30.23R WCI  19
$$
MNZ012-019>021-037-030200-
   Northeast Minnesota

CITY           SKY/WX    TMP DP  RH WIND       PRES   REMARKS
DULUTH         CLOUDY    29  24  82 NW5       30.22R WCI  24
ELY            CLOUDY    27  25  93 CALM      30.21R
HIBBING        CLOUDY    25  22  88 W5        30.23R WCI  19
EVELETH        CLOUDY    28  25  89 W8        30.23R WCI  19
DULUTH HARBOR  CLOUDY    32  27  80 CALM      30.27R
TWO HARBORS    CLOUDY    32  27  80 W3        30.21R
SILVER BAY     CLOUDY    28  25  86 NW3       30.20S
GRAND MARAIS     N/A     32  25  75 CALM      30.23R
G MARAIS ARPRT CLOUDY    25  21  86 CALM      30.17R
$$
MNZ029>031-032-039>041-046>048-054>057-064-030200-
   West Central Minnesota

CITY           SKY/WX    TMP DP  RH WIND       PRES   REMARKS
FERGUS FALLS   CLOUDY    27  19  74 W5        30.33S WCI  21
WHEATON        CLOUDY   N/A N/A N/A NW5       30.32S
MORRIS         CLOUDY    27  21  80 NW6       30.29F WCI  20
ALEXANDRIA     CLOUDY    26  21  81 W8        30.28S WCI  18
ELBOW LAKE     CLOUDY    26  20  80 CALM      30.30S
WADENA         CLOUDY    25  19  80 NW3       30.27S
GLENWOOD       CLOUDY    27  21  80 NW8       30.28S WCI  18
APPLETON       CLOUDY    28  21  74 NW5       30.30S WCI  23
BENSON         CLOUDY    27  19  74 N8        30.30S WCI  18
ORTONVILLE     CLOUDY    27  19  74 CALM      30.30S
MADISON        CLOUDY    30  23  74 CALM      30.30S
WILLMAR        CLOUDY    28  25  86 W6        30.30S WCI  22
$$
MNZ033>034-036-042>043-049>051-058-059-030200-
   Central Minnesota

CITY           SKY/WX    TMP DP  RH WIND       PRES   REMARKS
ST CLOUD       CLOUDY    29  23  78 NW7       30.28S WCI  22
PAYNESVILLE    CLOUDY    28  23  79 W5        30.29S WCI  23
AITKIN         CLOUDY    28  21  74 W6        30.26R WCI  22
PINE RIVER     CLOUDY    25  21  86 CALM      30.29S
BRAINERD       CLOUDY    26  22  84 W5        30.28R WCI  20
STAPLES        CLOUDY    25  21  86 NW5       30.27S WCI  19
LONG PRAIRIE   CLOUDY    28  21  74 SW3       30.28S
LITTLE FALLS   CLOUDY    28  21  74 NW5       30.28S WCI  23
LITCHFIELD     CLOUDY    30  25  80 W6        30.29S WCI  24
BUFFALO        CLOUDY    31  24  77 NW6       30.29F WCI  25
MAPLE LAKE     CLOUDY    31  26  82 NW7       30.29F WCI  24
$$
MNZ037-044-045-052-053-030200-
   East Central Minnesota

CITY           SKY/WX    TMP DP  RH WIND       PRES   REMARKS
PRINCETON      CLOUDY    30  25  80 W5        30.28F WCI  25
MORA           CLOUDY    28  23  80 W6        30.29S WCI  22
CAMBRIDGE      CLOUDY    30  21  69 CALM      30.27S
RUSH CITY      CLOUDY    28  23  80 W3        30.28S
MOOSE LAKE     CLOUDY    30  27  86 W5        30.25R WCI  25
HINCKLEY       CLOUDY    30  27  86 CALM      30.27S
CLOQUET        CLOUDY    28  23  80 W5        30.24R WCI  23
MCGREGOR       CLOUDY    28  25  86 W5        30.26R WCI  23
$$
MNZ071>073-080-081-089-090-097-098-030200-
   Southwest Minnesota

CITY           SKY/WX    TMP DP  RH WIND       PRES   REMARKS
MONTEVIDEO     CLOUDY    28  27  93 CALM      30.32S
GRANITE FALLS  CLOUDY    30  24  78 NW5       30.32S WCI  25
CANBY          CLOUDY    29  22  74 CALM      30.31S
MARSHALL       CLOUDY    28  21  75 NW8       30.30S WCI  20
REDWOOD FALLS  CLOUDY    29  20  69 NW5       30.30S WCI  24
OLIVIA         CLOUDY    30  23  74 NW6       30.29F WCI  24
PIPESTONE      CLOUDY    28  21  74 NW6       30.27S WCI  22
WINDOM         CLOUDY    28  25  86 CALM      30.29R
WORTHINGTON    CLOUDY    29  23  78 NW15      30.29S WCI  18
JACKSON        CLOUDY    30  23  74 W9        30.29R WCI  22
TRACY          CLOUDY    30  25  83 W3        30.29S
SLAYTON        CLOUDY    28  23  82 W10       30.28S WCI  18
$$
MNZ065>067-074>077-082>085-091>093-030200-
   South Central Minnesota

CITY           SKY/WX    TMP DP  RH WIND       PRES   REMARKS
MANKATO        CLOUDY    29  22  75 NW8       30.30F WCI  21
NEW ULM        CLOUDY    28  21  74 NW5       30.30S WCI  23
ST JAMES       CLOUDY    28  25  86 NW7       30.31S WCI  21
FAIRMONT       CLOUDY    30  25  81 N5        30.31R WCI  25
GLENCOE        CLOUDY    30  26  83 W7        30.28F WCI  23
FARIBAULT      CLOUDY    28  23  80 NW6       30.29F WCI  22
OWATONNA       CLOUDY    28  23  80 W10       30.28F WCI  19
WASECA         CLOUDY    30  25  80 W8        30.31R WCI  23
ALBERT LEA     CLOUDY    32  27  80 W10       30.29R WCI  24
$$
MNZ078>079-086>088-094>096-030200-
   Southeast Minnesota

CITY           SKY/WX    TMP DP  RH WIND       PRES   REMARKS
ROCHESTER      CLOUDY    29  24  82 NW13      30.27F WCI  19
RED WING       CLOUDY    34  21  60 W6        30.28S WCI  29
STANTON        CLOUDY    30  22  72 W7        30.28F WCI  23
DODGE CENTER   CLOUDY    27  21  80 NW8       30.27F WCI  18
WINONA         CLOUDY    34  25  69 NW8       30.30S WCI  27
AUSTIN         CLOUDY    28  21  74 NW7       30.29R WCI  21
PRESTON        CLOUDY    28  21  75 NW7       30.28S WCI  21
$$
ABBREVIATIONS USED IN REMARKS
   TC - TEMPERATURES IN CELSIUS
  WCI - WIND CHILL INDEX
   HX - HEAT INDEX
  VSB - VISIBILITY
$$




USA.gov is the U.S. government's official web portal to all federal, state and local government web resources and services.